Regional Weather Roundup
Issued by NWS Cleveland, OH

Home | Current Version | Previous Version | Text Only | Print | Product List | Glossary Off
Versions: 1 2 3 4 5 6 7 8 9 10 11 12 13 14 15 16 17 18 19 20 21 22 23 24 25 26 27 28 29 30 31 32 33 34 35 36 37 38 39 40 41 42 43 44 45 46 47 48 49 50

000
ASUS41 KCLE 210010
RWRCLE
OHIO REGIONAL WEATHER ROUNDUP
NATIONAL WEATHER SERVICE CLEVELAND, OH
800 PM EDT FRI APR 20 2018

NOTE: "FAIR" INDICATES FEW OR NO CLOUDS BELOW 12,000 FEET WITH NO
SIGNIFICANT WEATHER AND/OR OBSTRUCTIONS TO VISIBILITY.

OHZ001>008-015>018-024>027-034-035-043-044-210100-
   NORTHWEST OHIO

CITY           SKY/WX    TMP DP  RH WIND       PRES   REMARKS
DEFIANCE       FAIR      56  21  25 E3        30.42
FINDLAY        FAIR      54  21  27 E3        30.41F
TOLEDO EXPRESS FAIR      56  17  21 NE7       30.42F
TOLEDO EXEC    FAIR      53  27  36 E8        30.44S
LIMA           FAIR      53  21  28 NE6       30.42S
$$

OHZ009>014-019>023-028>033-038-089-210100-
   NORTHEAST OHIO

CITY           SKY/WX    TMP DP  RH WIND       PRES   REMARKS
CLE-HOPKINS    FAIR      47  20  34 N5        30.48S
CLE-LAKEFRONT  FAIR      42  24  49 CALM      30.46S
CUY CO. ARPT   PTCLDY    45  23  42 NW8       30.46S
LORAIN-ELYRIA  FAIR      46  21  37 NE10      30.46S
ASHTABULA      FAIR      42  22  44 NW6       30.45R
AKRON-CANTON   FAIR      45  17  32 N7        30.44R
WOOSTER        FAIR      44  24  45 N7        30.45R
MANSFIELD      FAIR      46  19  34 NE8       30.43F
YOUNGSTOWN     FAIR      43  21  41 N10       30.42R
$$

OHZ042-051>053-060>062-070>072-077>081-210100-
  SOUTHWEST OHIO

CITY           SKY/WX    TMP DP  RH WIND       PRES   REMARKS
CINC-COVINGTON MOCLDY    56  23  27 NE7       30.40S
CINC-LUNKEN    FAIR      55  30  38 E5        30.41S
HAMILTON       FAIR      54  30  40 N3        30.42S
DAYTON         FAIR      51  26  37 N7        30.42S
WRIGHT-PAT AFB FAIR      55  22  28 N6        30.41S
DAYTON GENERAL FAIR      54  24  31 NE8       30.40S
WILMINGTON     FAIR      52  30  43 NE7       30.40S
$$

OHZ036-037-039>041-045>050-054>059-063>069-073>076-082>088-210100-
  CENTRAL AND SOUTHEAST OHIO

CITY           SKY/WX    TMP DP  RH WIND       PRES   REMARKS
COLUMBUS       FAIR      53  24  32 N9        30.40F
OSU AIRPORT    FAIR      51  26  37 NE10      30.41S
BOLTON FIELD   NOT AVBL
RICKENBACK AFB FAIR      52  25  35 N8        30.40S
NEWARK         FAIR      54  22  28 N5        30.40S
MARION         FAIR      47  23  38 NE10      30.43F
LANCASTER      FAIR      53  30  41 N5        30.41F
ZANESVILLE     FAIR      53  20  27 N7        30.41R
NEW PHILLY     FAIR      49  18  29 NW8       30.43R
$$




USA.gov is the U.S. government's official web portal to all federal, state and local government web resources and services.